* Astronomy

Members Login
Username 
 
Password 
    Remember Me  
Post Info TOPIC: Asteroid 2011 CG71


L

Posts: 131433
Date:
Asteroid 2011 CG71
Permalink  
 


Orbital elements:
2011 CG71 Earth MOID = 0.1178 AU
Epoch 2011 Feb. 8.0 TT = JDT 2455600.5 MPC
M 351.82394 (2000.0) P Q
n 0.64933590 Peri. 178.74137 -0.84917594 -0.52656798
a 1.3207576 Node 329.37697 +0.48383712 -0.74510926
e 0.1624401 Incl. 4.54088 +0.21166449 -0.40931448
P 1.52 H 22.3 G 0.15 U 6

MPEC 2011 - D25


__________________
Page 1 of 1  sorted by
 
Quick Reply

Please log in to post quick replies.



Create your own FREE Forum
Report Abuse
Powered by ActiveBoard